USA 16

Satellite information

Favourite Embed

Satellite Type and Status

PAYLOADIN ORBIT

Key statistics

Satellite USA 16 at a glance.

Uptime

14331

Days in orbit

Revolutions

≈ 13.7

Per day

Orbit

LEO

Low Earth Orbit

Inclination

63.3

Latest

Satellite identification and parameters

Extended collection of information and parameters for USA 16.

Object identification

Identified? True

Debris? False

Object name: USA 16

International designator: 1986-014E

Object number (NORAD): 16624

Object ID (CCSDS): 16624

Country: UNITED STATES OF AMERICA (US)

Current information (Y/N): Y

RCS size: LARGE

Orbital parameters

Period: 105.306 minutes

Inclination: 63.295 deg

SMA: 7386.923 km

Apoapsis: 1621.768 km

Periapsis: 395.807 km

RAAN: 146.7862 deg

Eccentricy: 0.0829818

Argument of periapsis: 108.6497 deg

Mean anomaly: 260.6416 deg

Mean motion: 13.67437349 rev/day

Mean motion (dot): 0.00005258 rev/day2

B* drag term: 0.00046848 1/REarth

Two-line elements (TLE)

Creation date: May 6, 2025, 3:54 a.m.

Reference frame: TEME

Reference center: EARTH

Epoch: May 5, 2025, 10:33 a.m. UTC

TLE line 0: 0 USA 16

TLE line 1: 1 16624U 86014E 25125.44011523 .00005258 00000-0 46848-3 0 9996

TLE line 2: 2 16624 63.2950 146.7862 0829818 108.6497 260.6416 13.67437349293096

Live tracking on map

Real-time ground track for satellite USA 16.

In-orbit conjunctions

There are no conjunctions computed for USA 16, at the moment. Check back to stay up to date, as we update our databases every day.

Go to all conjunctions

Associated space launch

The Parcae satellites were passive ELINT satellites. MSD satellites were dispensers of triplets of ocean surveillance satellites.

USA 16 was lifted into orbit during the mission ‘Atlas H | Parcae 8A,B,C & MSD 8’, on board a Atlas H space rocket.

The launch took place on Feb. 9, 1986, 10:06 a.m. from Space Launch Complex 3E.

For more information about the launch, click the button.

Launch to space Atlas H | Parcae 8A,B,C & MSD 8
Atlas H | Parcae 8A,B,C & MSD 8

Agency: N/A

Status: Launch Successful

Launch date: Feb. 9, 1986, 10:06 a.m. UTC

Rocket: Atlas H

Launch pad: Space Launch Complex 3E

Location: Vandenberg SFB, CA, USA

...

Latest news about this satellite

There are no fresh news available about this satellite. Check back as we update our databases every day.


Newsletter sign-up

Weekly statistics, charts and insights to help you stay on top of the space industry.